[[{"header":{"parameterUnit":"m.s-1","parameterCategory":1,"la1":30.2991,"la2":30.254,"lo1":-89.0895,"lo2":-89.0444,"dy":0.0017,"dx":0.0017,"nx":28,"ny":28,"refTime":"2024-11-28T09:00:00:Z","depth":0,"parameterNumber":2,"parameterNumberName":"U-component_of_WINDS"},"data":[0,0,0,0,0,0,0,0,0,0,0,0,0,0,0,0,0,0,0,0,0,0,0,0,0,0,0,0,0,0,0,0,0,0,0,0,0,0,0,0,0,0,0,0,0,0,0,0,0,0,0,0,0,0,0,0,0,0,-0.8142,-0.8142,0,-0.816,-0.816,-0.8161,-0.8129,-0.8128,-0.8126,-0.8125,-0.8146,-0.8147,-0.8149,0,0,0,0,0,0,0,0,0,0,0,0,0,-0.808,-0.8081,-0.8142,-0.8142,-0.8142,-0.816,-0.816,-0.8161,-0.8129,-0.8127,-0.8126,-0.8125,-0.8145,-0.8147,-0.8149,0,0,0,0,0,0,0,0,0,0,0,0,0,-0.8103,-0.8082,-0.8142,-0.8129,-0.8128,-0.816,-0.816,-0.8161,-0.8129,-0.8127,-0.8126,-0.8124,-0.8145,-0.8147,-0.8149,-0.8196,0,0,-0.8156,-0.8157,0,0,0,0,0,0,0,0,-0.8102,-0.8106,-0.813,-0.813,-0.8128,-0.814,-0.8146,-0.8173,-0.8129,-0.8129,-0.8125,-0.8124,-0.8145,-0.8148,-0.8155,-0.8197,-0.8198,-0.8156,-0.8158,-0.8159,-0.816,0,0,0,0,0,0,0,-0.81,-0.8105,-0.8149,-0.8131,-0.813,-0.8122,-0.8123,-0.8151,-0.8146,-0.8129,-0.8126,-0.8129,-0.8145,-0.8152,-0.8155,-0.8198,-0.8156,-0.8158,-0.816,-0.8161,-0.8279,-0.8281,0,0,0,0,0,0,-0.81,-0.8104,-0.8149,-0.815,-0.8111,-0.8124,-0.8126,-0.8138,-0.8146,-0.8145,-0.813,-0.8127,-0.8149,-0.8152,-0.8155,-0.8211,-0.8159,-0.8161,-0.8162,-0.8277,-0.8279,-0.8281,0,0,0,0,0,0,-0.8099,-0.8105,-0.8148,-0.8126,-0.8131,-0.8127,-0.8141,-0.8139,-0.8147,-0.8147,-0.8146,-0.8139,-0.8148,-0.8152,-0.8186,-0.8211,-0.8162,-0.8164,-0.8275,-0.8278,-0.828,-0.8322,0,0,0,0,0,0,-0.8098,-0.8104,-0.8122,-0.8127,-0.8132,-0.8178,-0.8143,-0.8141,-0.8151,-0.8148,-0.8155,-0.8154,-0.8147,-0.8183,-0.8188,-0.8213,-0.8166,-0.8273,-0.8276,-0.8279,-0.8318,-0.8325,-0.8332,0,0,0,0,0,-0.8095,-0.8134,-0.8123,-0.8129,-0.8154,-0.818,-0.8183,-0.8173,-0.8153,-0.8171,-0.8171,-0.8154,-0.8207,-0.8186,-0.8192,-0.8219,-0.8271,-0.8275,-0.8279,-0.8315,-0.8324,-0.8331,0,0,0,0,0,0,-0.8134,-0.8134,-0.8123,-0.8163,-0.8172,-0.8174,-0.8197,-0.8183,-0.8197,-0.8194,-0.8181,-0.8183,-0.8219,-0.8222,-0.8199,-0.8264,-0.8236,-0.8241,-0.8261,-0.8269,-0.8276,-0.8275,-0.8168,0,0,0,0,0,-0.8146,-0.8167,-0.8166,-0.8202,-0.8207,-0.8201,-0.8212,-0.8203,-0.8211,-0.8215,-0.8217,-0.8226,-0.8244,-0.8257,-0.8274,-0.8318,-0.8319,-0.8338,-0.8345,-0.8351,-0.8356,-0.8379,-0.8388,-0.8294,-0.8294,-0.8294,0,0,-0.8174,-0.8177,-0.819,-0.821,-0.8215,-0.8236,-0.8204,-0.8228,-0.8244,-0.8219,-0.8251,-0.8252,-0.8261,-0.83,-0.8317,-0.8304,-0.8382,-0.8356,-0.836,-0.8362,-0.8384,-0.8393,-0.8401,-0.8297,-0.8296,-0.8296,0,0,-0.8235,-0.8239,-0.8269,-0.8275,-0.8283,-0.8278,-0.8285,-0.829,-0.829,-0.8321,-0.8302,-0.8321,-0.8353,-0.836,-0.8368,-0.8429,-0.8415,-0.8435,-0.8471,-0.8494,-0.8501,-0.8507,-0.853,-0.8538,-0.844,-0.844,-0.844,0,-0.8268,-0.83,-0.8287,-0.8312,-0.8321,-0.8297,-0.8328,-0.8334,-0.8348,-0.8354,-0.8338,-0.8377,-0.8382,-0.8422,-0.8437,-0.8444,-0.8452,-0.8435,-0.8501,-0.8507,-0.8513,-0.8534,-0.8543,-0.8442,-0.8442,-0.8442,-0.8442,0,-0.834,-0.8362,-0.8385,-0.8398,-0.8409,-0.8437,-0.8429,-0.8442,-0.8432,-0.8429,-0.8461,-0.8465,-0.8482,-0.8491,-0.8482,-0.8529,-0.852,-0.8503,-0.8475,-0.8525,-0.8544,-0.8552,-0.8446,-0.8445,-0.8444,-0.8444,0,0,-0.8428,-0.8432,-0.8441,-0.8446,-0.8452,-0.8469,-0.8495,-0.8511,-0.8522,-0.8532,-0.8554,-0.858,-0.8563,-0.8572,-0.8563,-0.8583,-0.8632,-0.8563,-0.8563,-0.8576,-0.8685,-0.8699,-0.8709,-0.8621,-0.8623,-0.8624,-0.8684,0,-0.8489,-0.8534,-0.8523,-0.8567,-0.8587,-0.8564,-0.8587,-0.8593,-0.8591,-0.8607,-0.8605,-0.8624,-0.86,-0.8605,-0.8623,-0.8622,-0.8654,-0.8617,-0.8642,-0.8643,-0.8642,-0.8719,-0.8734,-0.8791,-0.8692,-0.8693,-0.8694,0,-0.8567,-0.8579,-0.8625,-0.8627,-0.8635,-0.8656,-0.8669,-0.8685,-0.8691,-0.8688,-0.8697,-0.8683,-0.8709,-0.8679,-0.8715,-0.8691,-0.87,-0.87,-0.8702,-0.8705,-0.8673,-0.8725,-0.8809,-0.8818,-0.8706,-0.8705,-0.8704,0,-0.8627,-0.8654,-0.8685,-0.869,-0.8693,-0.8708,-0.871,-0.8715,-0.8725,-0.8736,-0.8742,-0.8757,-0.8765,-0.8776,-0.8767,-0.8746,-0.8804,-0.8774,-0.8802,-0.8803,-0.8817,-0.8817,-0.8905,-0.8821,-0.8821,-0.8821,-0.8821,0,-0.8698,-0.8727,-0.8712,-0.8732,-0.8764,-0.875,-0.8782,-0.8781,-0.8785,-0.8804,-0.8785,-0.8803,-0.8789,-0.8806,-0.8799,-0.8829,-0.8833,-0.8831,-0.8829,-0.8834,-0.8834,-0.8841,-0.8837,-0.8823,-0.8823,-0.8822,-0.8822,0,-0.8771,-0.8762,-0.8795,-0.8794,-0.8795,-0.8819,-0.8818,-0.8836,-0.8831,-0.8855,-0.886,-0.8853,-0.8871,-0.8863,-0.8883,-0.8878,-0.8917,-0.8909,-0.8915,-0.8914,-0.8943,-0.8941,-0.9039,-0.9052,-0.896,-0.896,-0.8961,0,-0.8818,-0.884,-0.8841,-0.8851,-0.8854,-0.8872,-0.8882,-0.8868,-0.8879,-0.8887,-0.8904,-0.892,-0.8933,-0.8964,-0.8961,-0.8976,-0.8969,-0.9002,-0.8971,-0.8975,-0.897,-0.8969,-0.8972,-0.9009,-0.901,-0.9011,-0.9012,0,-0.8901,-0.8894,-0.8909,-0.8921,-0.8933,-0.8942,-0.895,-0.896,-0.8946,-0.896,-0.8978,-0.8988,-0.9007,-0.9024,-0.9037,-0.9039,-0.9023,-0.9021,-0.9029,-0.9034,-0.9037,-0.9036,-0.8933,-0.9019,-0.9019,-0.9018,-0.9018,-0.9017,-0.8962,-0.8981,-0.8984,-0.9,-0.9004,-0.9011,-0.9028,-0.9025,-0.9039,-0.9054,-0.9044,-0.9066,-0.9071,-0.9086,-0.909,-0.9106,-0.9093,-0.9104,-0.9107,-0.911,-0.9114,-0.9033,-0.9108,-0.9108,-0.9108,-0.9108,-0.9108,0,-0.9045,-0.9045,-0.906,-0.9071,-0.9084,-0.9066,-0.9074,-0.9086,-0.9105,-0.911,-0.9122,-0.9143,-0.9159,-0.9156,-0.917,-0.9184,-0.9177,-0.9189,-0.9188,-0.9189,-0.9125,-0.9117,-0.9194,-0.9194,-0.9194,-0.9194,-0.9194,-0.9194,-0.909,-0.912,-0.9114,-0.9145,-0.9145,-0.9166,-0.9171,-0.9178,-0.9182,-0.9205,-0.9218,-0.9216,-0.9218,-0.9232,-0.9245,-0.9244,-0.9251,-0.9265,-0.9261,-0.9202,-0.9193,-0.9185,-0.9178,-0.9266,-0.9266,-0.9323,-0.9324,-0.9324]},{"header":{"parameterUnit":"m.s-1","parameterCategory":1,"la1":30.2991,"la2":30.254,"lo1":-89.0895,"lo2":-89.0444,"dy":0.0017,"dx":0.0017,"nx":28,"ny":28,"refTime":"2024-11-28T09:00:00:Z","depth":0,"parameterNumber":3,"parameterNumberName":"V-component_of_WINDS"},"data":[0,0,0,0,0,0,0,0,0,0,0,0,0,0,0,0,0,0,0,0,0,0,0,0,0,0,0,0,0,0,0,0,0,0,0,0,0,0,0,0,0,0,0,0,0,0,0,0,0,0,0,0,0,0,0,0,0,0,-8.224,-8.2241,0,-8.2381,-8.2383,-8.2384,-8.2305,-8.2301,-8.2297,-8.2294,-8.2431,-8.2438,-8.2445,0,0,0,0,0,0,0,0,0,0,0,0,0,-8.1895,-8.1901,-8.224,-8.2242,-8.2243,-8.2381,-8.2383,-8.2385,-8.2306,-8.2301,-8.2296,-8.2292,-8.2429,-8.2437,-8.2446,0,0,0,0,0,0,0,0,0,0,0,0,0,-8.2041,-8.1904,-8.2239,-8.2221,-8.222,-8.2381,-8.2383,-8.2385,-8.2307,-8.2301,-8.2295,-8.229,-8.2426,-8.2436,-8.2447,-8.2632,0,0,-8.2481,-8.2485,0,0,0,0,0,0,0,0,-8.2033,-8.2054,-8.2222,-8.2222,-8.2222,-8.232,-8.2311,-8.2468,-8.2308,-8.2274,-8.2293,-8.2287,-8.2398,-8.2411,-8.245,-8.2638,-8.2644,-8.2482,-8.2488,-8.2493,-8.2496,0,0,0,0,0,0,0,-8.2023,-8.2047,-8.2295,-8.2224,-8.2225,-8.2203,-8.2217,-8.2341,-8.2367,-8.2276,-8.2271,-8.2289,-8.2397,-8.244,-8.2453,-8.2646,-8.2481,-8.2491,-8.2498,-8.2502,-8.2992,-8.2998,0,0,0,0,0,0,-8.2015,-8.2039,-8.2291,-8.23,-8.2111,-8.2214,-8.223,-8.2294,-8.2365,-8.2371,-8.2294,-8.2285,-8.2424,-8.244,-8.2457,-8.2678,-8.2493,-8.2503,-8.2509,-8.2985,-8.2993,-8.3,0,0,0,0,0,0,-8.2008,-8.2038,-8.2285,-8.2168,-8.2198,-8.2226,-8.2299,-8.23,-8.2343,-8.2379,-8.2382,-8.2333,-8.242,-8.2442,-8.2589,-8.2682,-8.2508,-8.2518,-8.2978,-8.2988,-8.2997,-8.3121,0,0,0,0,0,0,-8.1998,-8.2036,-8.2108,-8.217,-8.2205,-8.2418,-8.2305,-8.2307,-8.2363,-8.2352,-8.2417,-8.2421,-8.2417,-8.2574,-8.26,-8.2694,-8.2527,-8.297,-8.2982,-8.2994,-8.3109,-8.3134,-8.3155,0,0,0,0,0,-8.1986,-8.2136,-8.2112,-8.2143,-8.2296,-8.2423,-8.2442,-8.2436,-8.237,-8.2442,-8.2465,-8.2419,-8.2667,-8.2589,-8.2619,-8.2717,-8.2964,-8.2979,-8.2993,-8.3098,-8.3129,-8.3154,0,0,0,0,0,0,-8.2081,-8.2144,-8.2118,-8.2293,-8.2354,-8.2409,-8.25,-8.2469,-8.2547,-8.2534,-8.2521,-8.2536,-8.269,-8.2718,-8.263,-8.2899,-8.2805,-8.2826,-8.2875,-8.2904,-8.2927,-8.2917,-8.2536,0,0,0,0,0,-8.2122,-8.2223,-8.2271,-8.2421,-8.2453,-8.2472,-8.2527,-8.2517,-8.2578,-8.2603,-8.2636,-8.2696,-8.2787,-8.2847,-8.2933,-8.3112,-8.3124,-8.3194,-8.3217,-8.3236,-8.3254,-8.335,-8.3382,-8.3048,-8.3048,-8.3047,0,0,-8.2208,-8.2255,-8.2319,-8.2441,-8.2487,-8.2589,-8.2493,-8.2605,-8.2681,-8.2619,-8.2761,-8.2788,-8.2853,-8.3017,-8.3091,-8.3045,-8.3349,-8.3254,-8.3269,-8.3277,-8.3369,-8.34,-8.3428,-8.3058,-8.3056,-8.3054,0,0,-8.2418,-8.2464,-8.2594,-8.2643,-8.2714,-8.2726,-8.2757,-8.2818,-8.2834,-8.2977,-8.2933,-8.3021,-8.3178,-8.3227,-8.3272,-8.35,-8.3461,-8.3528,-8.3649,-8.3743,-8.3769,-8.3793,-8.3874,-8.3903,-8.3546,-8.3547,-8.3547,0,-8.2515,-8.2671,-8.2664,-8.2781,-8.2835,-8.2786,-8.2916,-8.2963,-8.3058,-8.3096,-8.3043,-8.324,-8.328,-8.3455,-8.3511,-8.355,-8.3583,-8.3521,-8.3767,-8.379,-8.3811,-8.3889,-8.3919,-8.3554,-8.3554,-8.3553,-8.3552,0,-8.2787,-8.2895,-8.299,-8.3087,-8.3152,-8.3274,-8.3284,-8.335,-8.3335,-8.3351,-8.3497,-8.3544,-8.3638,-8.3679,-8.3664,-8.3852,-8.3821,-8.3768,-8.3674,-8.3851,-8.3923,-8.3953,-8.3566,-8.3563,-8.356,-8.3559,0,0,-8.3059,-8.3151,-8.3187,-8.323,-8.3305,-8.3388,-8.3507,-8.3602,-8.3659,-8.3726,-8.3825,-8.396,-8.3912,-8.3963,-8.3953,-8.4036,-8.4213,-8.3972,-8.3973,-8.4015,-8.4422,-8.4461,-8.4496,-8.4188,-8.4193,-8.4198,-8.4416,0,-8.3274,-8.3486,-8.3484,-8.368,-8.3779,-8.3734,-8.3838,-8.3894,-8.3913,-8.3997,-8.4016,-8.4112,-8.4042,-8.4072,-8.4152,-8.4175,-8.4295,-8.4159,-8.4278,-8.4282,-8.4263,-8.4534,-8.4576,-8.478,-8.4445,-8.4449,-8.4453,0,-8.3552,-8.3632,-8.3838,-8.39,-8.3941,-8.4035,-8.4122,-8.4205,-8.4267,-8.4274,-8.4333,-8.431,-8.4429,-8.4332,-8.4495,-8.4403,-8.4451,-8.4469,-8.4477,-8.4487,-8.4378,-8.4551,-8.4845,-8.4875,-8.4497,-8.4494,-8.4491,0,-8.3731,-8.3888,-8.4033,-8.4071,-8.4146,-8.4213,-8.4247,-8.4304,-8.4362,-8.4437,-8.4473,-8.456,-8.4608,-8.4674,-8.4675,-8.4604,-8.484,-8.4742,-8.4848,-8.4848,-8.4899,-8.4896,-8.5204,-8.4931,-8.493,-8.493,-8.4929,0,-8.397,-8.4098,-8.4114,-8.4203,-8.4344,-8.4339,-8.4478,-8.4505,-8.4557,-8.4648,-8.4613,-8.4699,-8.4695,-8.4781,-8.4782,-8.4917,-8.4938,-8.4946,-8.4945,-8.4949,-8.4948,-8.498,-8.4966,-8.4938,-8.4936,-8.4935,-8.4933,0,-8.4193,-8.4209,-8.4363,-8.4423,-8.4441,-8.4542,-8.4592,-8.4675,-8.469,-8.4806,-8.4833,-8.4857,-8.4957,-8.4964,-8.5079,-8.5079,-8.5243,-8.5226,-8.5223,-8.522,-8.5324,-8.5314,-8.5664,-8.5709,-8.5407,-8.541,-8.5412,0,-8.4345,-8.4443,-8.4514,-8.4574,-8.4613,-8.471,-8.4769,-8.4767,-8.4829,-8.4908,-8.4981,-8.5079,-8.5156,-8.5318,-8.5344,-8.5431,-8.5415,-8.5532,-8.5428,-8.543,-8.5417,-8.5411,-8.542,-8.5552,-8.5555,-8.5558,-8.556,0,-8.4612,-8.4616,-8.4704,-8.4795,-8.4867,-8.4938,-8.5004,-8.5055,-8.506,-8.5132,-8.5236,-8.5296,-8.5415,-8.5511,-8.5597,-8.5628,-8.5596,-8.5593,-8.5622,-8.5627,-8.5622,-8.5626,-8.5277,-8.5585,-8.5582,-8.5581,-8.5579,-8.5578,-8.4804,-8.4889,-8.4953,-8.5052,-8.5102,-8.5165,-8.5246,-8.5273,-8.536,-8.5458,-8.5451,-8.5565,-8.5624,-8.5736,-8.5775,-8.5863,-8.5823,-8.5865,-8.5875,-8.5886,-8.5896,-8.5608,-8.5878,-8.5877,-8.5877,-8.5876,-8.5876,0,-8.507,-8.5109,-8.52,-8.5296,-8.5373,-8.5338,-8.5409,-8.5475,-8.5577,-8.5636,-8.5714,-8.5833,-8.5926,-8.596,-8.605,-8.6114,-8.6101,-8.6137,-8.6132,-8.614,-8.5927,-8.5893,-8.6147,-8.6147,-8.6146,-8.6146,-8.6146,-8.6146,-8.5217,-8.5359,-8.537,-8.5536,-8.5573,-8.5688,-8.5731,-8.5788,-8.5835,-8.597,-8.6049,-8.6071,-8.6119,-8.6213,-8.6297,-8.6304,-8.6338,-8.6382,-8.6382,-8.6182,-8.6155,-8.6129,-8.6097,-8.6389,-8.639,-8.6588,-8.659,-8.6591]}]]